Regional Weather Roundup
Issued by NWS

Home | Current Version | Previous Version | Graphics & Text | Print | Product List | Glossary Off
Versions: 1 2 3 4 5 6 7 8 9 10 11 12 13 14 15 16 17 18 19 20 21 22 23 24 25 26 27 28 29 30 31 32 33 34 35 36 37 38 39 40 41 42 43 44 45 46 47 48 49 50

000
ASUS43 KMKX 262300
RWRWI

WISCONSIN REGIONAL WEATHER ROUNDUP
NATIONAL WEATHER SERVICE MILWAUKEE/SULLIVAN WI
600 PM CDT THU MAY 26 2016

NOTE: "FAIR" INDICATES FEW OR NO CLOUDS BELOW 12,000 FEET WITH NO
SIGNIFICANT WEATHER AND/OR OBSTRUCTIONS TO VISIBILITY.

WIZ001-002-006>008-014>016-023>028-270000-
NORTHWEST WISCONSIN

CITY           SKY/WX    TMP DP  RH WIND       PRES   REMARKS
SUPERIOR ARPT  CLOUDY    48  46  91 NE6       29.79F
ASHLAND        SUNNY     67  61  81 NE10      29.77F
HAYWARD        SUNNY     78  51  38 VRB3      29.75F
SIREN          SUNNY     79  49  35 W9G18     29.76F
CUMBERLAND     SUNNY     77  48  36 W10G16    29.77F
RICE LAKE      SUNNY     79  47  33 W9        29.78F
CHETEK         SUNNY     79  53  40 MISG      29.76F
LADYSMITH      MOSUNNY   78  57  48 SW8       29.78F
EAU CLAIRE     NOT AVBL
MENOMONIE      SUNNY     81  52  36 W12       29.78R HX  80
NEW RICHMOND   SUNNY     78  45  31 W12       29.78F
OSCEOLA        SUNNY     78  55  44 W7        29.79F
$$

WIZ003>005-009-010-017-018-270000-
NORTH CENTRAL WISCONSIN

CITY           SKY/WX    TMP DP  RH WIND       PRES   REMARKS
MANITOWISH WTR NOT AVBL
ARBOR VITAE    MOSUNNY   73  61  66 SE3       29.80F
WOODRUFF       MOSUNNY   73  61  66 SE3       29.80F
RHINELANDER    PTSUNNY   73  59  61 CALM      29.79F
EAGLE RIVER      N/A     73  55  53 SW6       29.81F
LAND O LAKES   SUNNY     73  56  55 W5        29.82F
PHILLIPS       MOSUNNY   75  58  54 SW7       29.77F
TOMAHAWK       MOSUNNY   73  57  56 CALM      29.80F
MEDFORD        SUNNY     74  58  57 W8        29.80F
MERRILL        MOSUNNY   75  57  53 W9        29.80F
$$

WIZ029-030-035-036-043>047-270000-
CENTRAL WISCONSIN

CITY           SKY/WX    TMP DP  RH WIND       PRES   REMARKS
WAUSAU         MOSUNNY   77  56  48 W8        29.78F
MOSINEE        MOSUNNY   75  57  53 W9        29.82F
MARSHFIELD     MOSUNNY   78  57  48 W8        29.79F
STEVENS POINT  SUNNY     76  55  47 W6        29.81F
WAUPACA        MOSUNNY   82  55  38 W6        29.79F HX  82
WAUTOMA        MOSUNNY   81  58  45 SW9       29.80F HX  81
WISC RAPIDS    SUNNY     80  54  40 W8        29.80F HX  80
CAMP DOUGLAS   NOT AVBL
$$

WIZ011>013-019>022-031-037>040-048>050-270000-
NORTHEAST WISCONSIN

CITY           SKY/WX    TMP DP  RH WIND       PRES   REMARKS
ANTIGO         MOSUNNY   72  60  67 CALM      29.82F
SHAWANO        MOSUNNY   79  58  48 NW5       29.79F HX  80
OCONTO         PTSUNNY   80  60  51 W10       29.78F HX  81
STURGEON BAY   NOT AVBL
GREEN BAY      SUNNY     81  58  45 W12       29.79F HX  81
MANITOWOC      NOT AVBL
APPLETON       MOSUNNY   79  54  41 W8        29.79F
CLINTONVILLE   MOSUNNY   79  52  38 NW8       29.79F
OSHKOSH        SUNNY     80  57  45 W10       29.79F HX  80
$$

WIZ032>034-041-042-053>061-270000-
SOUTHWEST WISCONSIN

CITY           SKY/WX    TMP DP  RH WIND       PRES   REMARKS
LA CROSSE      SUNNY     81  56  42 W8        29.80R HX  81
SPARTA         MOSUNNY   78  58  50 W7        29.80S HX  80
VIROQUA        SUNNY     79  57  46 W6        29.83R HX  80
BOSCOBEL       CLOUDY    82  58  43 W5        29.81R HX  82
PRAIRIE DU CHI CLOUDY    81  56  42 W6        29.80R HX  81
PLATTEVILLE    CLOUDY    82  53  36 W5        29.82R HX  81
$$

WIZ056-057-062-063-064-067-068-270000-
SOUTH CENTRAL WISCONSIN

CITY           SKY/WX    TMP DP  RH WIND       PRES   REMARKS
REEDSBURG      SUNNY     80  58  46 W7        29.80S HX  81
BARABOO/DELLS  SUNNY     81  52  36 W6        29.80S HX  80
LONE ROCK      NOT AVBL
MINERAL POINT  CLOUDY    81  50  34 W7        29.82S HX  80
MADISON        PTSUNNY   83  54  36 CALM      29.80S HX  82
MIDDLETON      SUNNY     83  53  35 W9        29.81S HX  82
WATERTOWN      SUNNY     82  56  40 CALM      29.79F HX  81
MONROE         SUNNY     82  50  32 W5        29.82R HX  81
JANESVILLE     PTSUNNY   84  52  32 W12       29.81S HX  82
$$

WIZ051-052-058>065-066-070>072-270000-
SOUTHEAST WISCONSIN

CITY           SKY/WX    TMP DP  RH WIND       PRES   REMARKS
MILWAUKEE      PTSUNNY   84  59  42 W7        29.80F HX  84
WAUKESHA       MOSUNNY   81  54  39 W8        29.81F HX  80
MILWAUKEE/TIMM SUNNY     82  48  30 W8        29.81F HX  81
RACINE         MOSUNNY   83  61  47 SW6       29.82F HX  83
BURLINGTON     SUNNY     82  57  42 W5        29.80F HX  81
KENOSHA        SUNNY     81  62  52 SW6       29.81F HX  82
FOND DU LAC    SUNNY     81  58  45 W8        29.79F HX  81
SHEBOYGAN      SUNNY     81  58  45 NW8       29.79F HX  81
WEST BEND      SUNNY     81  55  41 W6        29.80F HX  80
JUNEAU         SUNNY     80  58  47 W6        29.81F HX  81
$$

LSZ147-162-270000-
LAKE SUPERIOR

STATION/POSITION TIME  TEMP    WIND        PRES    WAVE
                       AIR SEA DIR/SP/G            HT/PER
                 (UTC) (F)     (DEG/KT/KT) (MB)    (FT/S)
W MID LAKE BUOY  2150   41 38  290/  2/  4 1010.1S   1
DEVILS ISLAND    2200   44      30/  7/  7 1010.1F
SAXON HARBOR     2200   51      40/  5/  6 1009.5R
$$

LMZ867-665-643>646-270000-
LAKE MICHIGAN

STATION/POSITION TIME  TEMP    WIND        PRES    WAVE
                       AIR SEA DIR/SP/G            HT/PER
                 (UTC) (F)     (DEG/KT/KT) (MB)    (FT/S)
CHAMBERS ISLAND  2240   64      30/  9/ 11 1009.5F
N MID LAKE BUOY  2150   49 45  220/ 14/ 16 1009.5R   2/ 3
NORTHPORT PIER   2200   65     310/ 10/ 15 1009.8F
SISTER BAY       2220   64     360/ 10/ 11   N/A
ALGOMA LAKESHORE 2217          300/ 10/ 18   N/A
KEWAUNEE LAKESHO 2200          250/ 12/ 16 1008.8F
SHEBOYGAN LAKESH 2200   70     160/ 10/ 14 1009.8F
PORT WASHINGTON  2240           90/  2/  7 1009.5F
S MID LAKE BUOY  2150   58 50  160/  8/  8 1010.6F   1
KENOSHA   LAKESH 2200   82     250/  6/ 15 1009.8S
$$

TC  - TEMPERATURE IN CELSIUS
VSB - VISIBILITY IN STATUTE MILES
WCI - WIND CHILL INDEX
HX  - HEAT INDEX




USA.gov is the U.S. government's official web portal to all federal, state and local government web resources and services.